Lincoln, NE

11:56 AM CDT on October 18, 2017 (GMT -0500)
Lincoln Municipal

Weather History for KLNK - October, 2013

Change the Weather History Date:

Friday, October 4, 2013

  Actual Average Record
Temperature  
Mean Temperature 67 °F 58 °F  
Max Temperature 86 °F 71 °F 93 °F (1938)
Min Temperature 47 °F 45 °F 29 °F (1999)
Degree Days  
Heating Degree Days 0 8  
Month to date heating degree days 0 30  
Since 1 July heating degree days 31 128  
Cooling Degree Days 2 1  
Month to date cooling degree days 14 4  
Year to date cooling degree days 1232 1162  
Growing Degree Days 20 (Base 50)    
Moisture  
Dew Point 59 °F    
Average Humidity 68    
Maximum Humidity 93    
Minimum Humidity 43    
Precipitation  
Precipitation 0.00 in 0.08 in 1.20 in (1902)
Month to date precipitation 2.06 0.32  
Year to date precipitation 24.50 24.92  
Snow  
Snow 0.00 in 0.00 in - ()
Month to date snowfall 0.0 0.0  
Since 1 July snowfall 0.0 T  
Snow Depth 0.00 in    
Sea Level Pressure  
Sea Level Pressure 29.73 in    
Wind  
Wind Speed 16 mph (ESE)    
Max Wind Speed 29 mph    
Max Gust Speed 33 mph    
Visibility 10 miles    
Events      
T = Trace of Precipitation, MM = Missing Value Source: NWS Daily Summary

Daily Weather History Graph

Daily Weather History Graph

Search for Another Location

Airport or City:

Trip Planner

Search our weather history database for the weather conditions in past years. The results will help you decide how hot, cold, wet, or windy it might be!

Date:

Astronomy

Oct. 04, 2013 Rise Set
Actual Time 7:26 AM CDT 7:03 PM CDT
Civil Twilight 6:59 AM CDT 7:30 PM CDT
Nautical Twilight 6:27 AM CDT 8:02 PM CDT
Astronomical Twilight 5:55 AM CDT 8:34 PM CDT
Moon 7:03 AM CDT (10/4) 6:46 PM CDT (10/4)
Length of Visible Light 12h 31m
Length of Day
11h 36m
Waning Crescent, 0% of the Moon is Illuminated
Oct 4
Waning Crescent
Oct 4
New
Oct 11
First Quarter
Oct 18
Full
Oct 26
Last Quarter

Hourly Weather History & Observations

Time (CDT) Temp. Heat Index Dew Point Humidity Pressure Visibility Wind Dir Wind Speed Gust Speed Precip Events Conditions
12:54 AM 63.0 °F - 59.0 °F 87% 29.69 in 10.0 mi ESE 13.8 mph - 0.00 in   Scattered Clouds
1:54 AM 64.0 °F - 59.0 °F 84% 29.74 in 10.0 mi ENE 10.4 mph - N/A   Overcast
2:17 AM 64.4 °F - 59.0 °F 83% 29.77 in 10.0 mi NE 11.5 mph - N/A   Overcast
2:54 AM 64.0 °F - 60.1 °F 87% 29.73 in 10.0 mi ENE 10.4 mph - N/A   Overcast
3:42 AM 64.4 °F - 60.8 °F 88% 29.76 in 10.0 mi NE 10.4 mph - N/A   Overcast
3:54 AM 64.9 °F - 62.1 °F 90% 29.74 in 10.0 mi ENE 8.1 mph - N/A   Overcast
4:01 AM 64.4 °F - 62.6 °F 94% 29.76 in 10.0 mi ENE 8.1 mph - N/A   Overcast
4:11 AM 64.4 °F - 62.6 °F 94% 29.76 in 10.0 mi ENE 11.5 mph - N/A   Overcast
4:54 AM 64.9 °F - 61.0 °F 87% 29.73 in 10.0 mi NE 17.3 mph 26.5 mph N/A   Overcast
5:54 AM 64.9 °F - 59.0 °F 81% 29.73 in 10.0 mi ENE 23.0 mph 28.8 mph N/A   Overcast
6:54 AM 64.0 °F - 59.0 °F 84% 29.74 in 10.0 mi East 19.6 mph 28.8 mph N/A   Overcast
7:54 AM 64.9 °F - 59.0 °F 81% 29.73 in 10.0 mi East 19.6 mph 27.6 mph N/A   Overcast
8:20 AM 64.4 °F - 59.0 °F 83% 29.75 in 10.0 mi East 25.3 mph 29.9 mph N/A   Overcast
8:30 AM 64.4 °F - 59.0 °F 83% 29.76 in 10.0 mi SE 11.5 mph 21.9 mph N/A   Overcast
8:54 AM 64.9 °F - 60.1 °F 84% 29.74 in 10.0 mi SSE 9.2 mph 20.7 mph N/A   Overcast
9:52 AM 66.2 °F - 60.8 °F 83% 29.75 in 10.0 mi Variable 3.5 mph - N/A   Overcast
9:54 AM 66.0 °F - 61.0 °F 84% 29.73 in 10.0 mi East 8.1 mph - N/A   Overcast
10:18 AM 66.2 °F - 62.6 °F 88% 29.74 in 10.0 mi ESE 11.5 mph - N/A   Overcast
10:54 AM 68.0 °F - 63.0 °F 84% 29.71 in 10.0 mi ESE 10.4 mph - N/A   Overcast
11:41 AM 71.6 °F - 64.4 °F 78% 29.72 in 10.0 mi SE 16.1 mph - N/A   Overcast
11:54 AM 73.0 °F - 66.0 °F 79% 29.69 in 10.0 mi SE 16.1 mph 21.9 mph N/A   Overcast
12:25 PM 73.4 °F - 66.2 °F 78% 29.71 in 10.0 mi SE 12.7 mph 19.6 mph N/A   Mostly Cloudy
12:33 PM 75.2 °F - 66.2 °F 73% 29.71 in 10.0 mi SE 13.8 mph 21.9 mph N/A   Overcast
12:41 PM 75.2 °F - 66.2 °F 73% 29.70 in 10.0 mi SE 17.3 mph 21.9 mph N/A   Overcast
12:51 PM 75.2 °F - 66.2 °F 73% 29.70 in 10.0 mi SE 15.0 mph - N/A   Overcast
12:54 PM 75.0 °F - 68.0 °F 79% 29.67 in 10.0 mi ESE 15.0 mph - N/A   Overcast
1:46 PM 78.8 °F - 69.8 °F 74% 29.67 in 10.0 mi SSE 15.0 mph - N/A   Overcast
1:54 PM 80.1 °F 82.9 °F 69.1 °F 69% 29.64 in 10.0 mi SSE 15.0 mph - N/A   Mostly Cloudy
2:54 PM 82.9 °F 85.8 °F 68.0 °F 60% 29.61 in 10.0 mi South 16.1 mph - N/A   Mostly Cloudy
3:54 PM 86.0 °F 87.3 °F 64.0 °F 48% 29.59 in 10.0 mi SSW 21.9 mph 29.9 mph N/A   Partly Cloudy
4:54 PM 84.0 °F 83.8 °F 59.0 °F 43% 29.61 in 10.0 mi WSW 24.2 mph 31.1 mph N/A   Scattered Clouds
5:02 PM 82.4 °F 82.5 °F 59.0 °F 45% 29.64 in 10.0 mi SW 17.3 mph 29.9 mph N/A   Partly Cloudy
5:54 PM 78.1 °F - 55.9 °F 46% 29.66 in 10.0 mi WSW 20.7 mph 28.8 mph N/A   Clear
6:54 PM 72.0 °F - 55.0 °F 55% 29.72 in 10.0 mi WSW 21.9 mph 32.2 mph N/A   Clear
7:54 PM 66.9 °F - 48.9 °F 52% 29.78 in 10.0 mi West 19.6 mph 25.3 mph N/A   Mostly Cloudy
8:54 PM 62.1 °F - 43.0 °F 50% 29.82 in 10.0 mi West 25.3 mph 29.9 mph N/A   Partly Cloudy
9:54 PM 57.0 °F - 41.0 °F 55% 29.87 in 10.0 mi WNW 12.7 mph 27.6 mph N/A   Overcast
10:54 PM 53.1 °F - 37.9 °F 57% 29.91 in 10.0 mi West 13.8 mph - N/A   Overcast
11:54 PM 50.0 °F - 34.0 °F 54% 29.94 in 10.0 mi West 11.5 mph - N/A   Overcast